Zurück zum Katalog

DELTA 1 DEB

AktivSSO
NORAD 3416·DEBRIS·🇺🇸 United States

Gestartet Aug 16, 1968 von Vandenberg Space Force Base

Loading…

Nächste Überflüge (nächste 24 Stunden)

TLE

AktuellSource: Space-Track

Epoche: Sep 14, 2026, 08:19 UTC

1 03416U 68069C   26257.34682303 -.00000030  00000-0  88505-4 0  9998
2 03416 101.7400  32.7803 0118801 334.0014  51.9066 12.67155265685563

Verfolge DELTA 1 DEB in Echtzeit mit AllMySat

Download on the App Store